Flag for U.S.A. Weather past 2 weeks in Fort Wayne, Indiana, U.S.A.

Now
71 °F

Light rain. Partly sunny.


Feels Like: 73 °F
Forecast: 63 / 84 °F
Wind: No wind

Location: Fort Wayne International Airport

Current Time: Jul 5, 2015 at 10:59:20 PM

Latest Report: Jul 5, 2015 at 9:54 PM


Visibility: 10 mi

Pressure: 30.06 "Hg

Humidity: 76%

Dew point: 63 °F

Location of Fort WayneLocation

Historic Weather in Fort Wayne — Graph

°F

Fort Wayne temperature yesterday

Maximum temperature yesterday: 80 °F (at 4:54 PM)
Minimum temperature yesterday: 56 °F (at 4:54 AM)
Average temperature yesterday: 69 °F

Past Weeks' High & Low Weather Summary

 TemperatureHumidityPressure
High85 °F (Jun 22, 5:54 PM)100% (Jun 30, 3:54 AM)30.19 "Hg (Jun 30, 3:54 AM)
Low27 °F (Jun 22, 9:54 PM)40% (Jun 28, 5:54 PM)29.73 "Hg (Jun 27, 7:54 AM)
Average69 °F76%29.94 "Hg
* Reported Jun 20 9:54 PM — Jul 5 9:54 PM, Fort Wayne, Weather by CustomWeather, © 2015

Note: Actual official high and low records may vary slightly from our data, if they occured in-between our weather recording intervals... More about our weather records

Advertising

Fort Wayne weather history for previous 24 hours

 ConditionsComfort  
Time TempWeatherWind HumidityBarometerVisibility
9:54 PM
Sun, Jul 5
71 °FLight rain. Partly sunny.No wind76%30.06 "Hg10 mi
8:54 PM73 °FPartly sunny.No wind71%30.06 "Hg10 mi
7:54 PM77 °FPartly sunny.No wind58%30.06 "Hg10 mi
6:54 PM78 °FBroken clouds.No wind58%30.07 "Hg10 mi
5:54 PM79 °FPartly sunny.5 mph54%30.07 "Hg10 mi
4:54 PM80 °FPartly sunny.3 mph51%30.08 "Hg10 mi
3:54 PM82 °FOvercast.6 mph49%30.08 "Hg10 mi
2:54 PM81 °FMostly cloudy.3 mph45%30.08 "Hg10 mi
1:54 PM81 °FMostly cloudy.6 mph49%30.10 "Hg10 mi
12:54 PM79 °FOvercast.No wind50%30.11 "Hg10 mi
11:54 AM79 °FOvercast.No wind52%30.11 "Hg10 mi
10:54 AM75 °FOvercast.No wind62%30.12 "Hg10 mi
9:54 AM71 °FOvercast.No wind73%30.12 "Hg7 mi
8:54 AM67 °FPartly sunny.No wind79%30.12 "Hg3 mi
7:54 AM63 °FFog.3 mph90%30.11 "Hg1 mi
6:54 AM59 °FFog.No wind93%30.11 "Hg2 mi
5:54 AM59 °FPassing clouds.No wind96%30.09 "Hg10 mi
4:54 AM60 °FClear.No wind96%30.07 "Hg10 mi
3:54 AM61 °FClear.No wind93%30.06 "Hg10 mi
2:54 AM62 °FPassing clouds.No wind90%30.06 "Hg10 mi
1:54 AM62 °FPassing clouds.3 mph90%30.06 "Hg10 mi
12:54 AM64 °FClear.No wind87%30.05 "Hg10 mi
11:54 PM
Sat, Jul 4
66 °FClear.No wind84%30.05 "Hg10 mi
10:54 PM67 °FClear.No wind81%30.04 "Hg10 mi
Weather by CustomWeather, © 2015

See weather overviewHow to use our weather pages